Manhattan, KS

11:37 AM CDT on August 23, 2017 (GMT -0500)
Manhattan Regional

Weather History for KMHK - July, 2013

Change the Weather History Date:

Monday, July 1, 2013

  Actual Average Record
Temperature  
Mean Temperature 68 °F 78 °F  
Max Temperature 82 °F 89 °F 104 °F (2011)
Min Temperature 53 °F 66 °F 53 °F (2013)
Degree Days  
Heating Degree Days 0 0  
Month to date heating degree days 0 0  
Since 1 June heating degree days 9 11  
Since 1 July heating degree days 0 0  
Cooling Degree Days 3 13  
Month to date cooling degree days 3 13  
Year to date cooling degree days 457 383  
Since 1 June cooling degree days 321 283  
Growing Degree Days 17 (Base 50)    
Moisture  
Dew Point 53 °F    
Average Humidity 63    
Maximum Humidity 93    
Minimum Humidity 33    
Precipitation  
Precipitation 0.00 in 0.17 in 1.02 in (2004)
Month to date precipitation 0.00 0.17  
Year to date precipitation 12.79 16.46  
Sea Level Pressure  
Sea Level Pressure 30.12 in    
Wind  
Wind Speed 5 mph (NNE)    
Max Wind Speed 16 mph    
Max Gust Speed 30 mph    
Visibility 8 miles    
Events      
T = Trace of Precipitation, MM = Missing Value Source: NWS Daily Summary

Daily Weather History Graph

Daily Weather History Graph

Search for Another Location

Airport or City:

Trip Planner

Search our weather history database for the weather conditions in past years. The results will help you decide how hot, cold, wet, or windy it might be!

Date:

Astronomy

Jul. 01, 2013 Rise Set
Actual Time 6:04 AM CDT 8:56 PM CDT
Civil Twilight 5:32 AM CDT 9:28 PM CDT
Nautical Twilight 4:51 AM CDT 10:09 PM CDT
Astronomical Twilight 4:05 AM CDT 10:55 PM CDT
Moon 1:33 AM CDT (7/1) 3:14 PM CDT (7/1)
Length of Visible Light 15h 56m
Length of Day
14h 52m
Waning Crescent, 35% of the Moon is Illuminated
Jul 1
Waning Crescent
Jul 8
New
Jul 15
First Quarter
Jul 22
Full
Jul 29
Last Quarter

Hourly Weather History & Observations

Time (CDT) Temp. Heat Index Dew Point Humidity Pressure Visibility Wind Dir Wind Speed Gust Speed Precip Events Conditions
12:52 AM 60.1 °F - 55.9 °F 86% 30.08 in 10.0 mi Calm Calm - N/A   Clear
1:52 AM 61.0 °F - 55.0 °F 81% 30.09 in 10.0 mi Calm Calm - N/A   Clear
2:52 AM 59.0 °F - 54.0 °F 83% 30.09 in 8.0 mi Calm Calm - N/A   Clear
3:52 AM 55.9 °F - 52.0 °F 87% 30.10 in 6.0 mi Calm Calm - N/A   Clear
4:52 AM 54.0 °F - 51.1 °F 90% 30.11 in 6.0 mi Calm Calm - N/A   Overcast
5:52 AM 53.1 °F - 51.1 °F 93% 30.12 in 6.0 mi Calm Calm - N/A   Clear
6:52 AM 55.0 °F - 52.0 °F 89% 30.14 in 4.0 mi Calm Calm - N/A   Clear
7:52 AM 60.1 °F - 55.0 °F 83% 30.14 in 5.0 mi Calm Calm - N/A   Haze
8:52 AM 66.0 °F - 55.9 °F 70% 30.16 in 5.0 mi NE 4.6 mph - N/A   Haze
9:52 AM 72.0 °F - 55.9 °F 57% 30.16 in 7.0 mi NE 6.9 mph - N/A   Clear
10:52 AM 75.0 °F - 55.0 °F 50% 30.16 in 8.0 mi NNE 9.2 mph - N/A   Clear
11:52 AM 77.0 °F - 55.9 °F 48% 30.16 in 9.0 mi North 10.4 mph 18.4 mph N/A   Scattered Clouds
12:52 PM 78.1 °F - 54.0 °F 43% 30.15 in 10.0 mi NNE 11.5 mph 17.3 mph N/A   Partly Cloudy
1:52 PM 80.1 °F 79.9 °F 53.1 °F 39% 30.13 in 10.0 mi NE 13.8 mph 18.4 mph N/A   Partly Cloudy
2:52 PM 80.1 °F - 52.0 °F 38% 30.12 in 10.0 mi NNE 11.5 mph 19.6 mph N/A   Partly Cloudy
3:52 PM 81.0 °F - 51.1 °F 35% 30.12 in 10.0 mi NE 13.8 mph - N/A   Clear
4:52 PM 81.0 °F - 48.0 °F 31% 30.10 in 10.0 mi NNE 8.1 mph - N/A   Clear
5:52 PM 80.1 °F - 50.0 °F 35% 30.10 in 10.0 mi NE 10.4 mph - N/A   Clear
6:52 PM 79.0 °F - 51.1 °F 38% 30.09 in 10.0 mi NE 10.4 mph - N/A   Clear
7:52 PM 78.1 °F - 52.0 °F 40% 30.10 in 10.0 mi North 3.5 mph - N/A   Clear
8:52 PM 73.0 °F - 55.0 °F 53% 30.09 in 10.0 mi NNW 3.5 mph - N/A   Clear
9:52 PM 68.0 °F - 55.0 °F 63% 30.10 in 10.0 mi Calm Calm - N/A   Clear
10:52 PM 61.0 °F - 55.9 °F 83% 30.11 in 10.0 mi Calm Calm - N/A   Clear
11:52 PM 61.0 °F - 55.9 °F 83% 30.11 in 10.0 mi Calm Calm - N/A   Clear